Location: Kapuskasing
(49.3803°N, 82.4001°W)
Time: 15:13:40
(UTC-05:00)

RS-44 - Pass Details

Date: 20 December 2025
Orbit: 1174 x 1511 km, 82.5° (Epoch: 21 January)

Event Time Altitude Azimuth Distance (km) Brightness Sun altitude
Exits shadow 04:07:42 11° 350° (N) 3,513 ? -40.1°
Drops below altitude 10° 04:07:50 10° 350° (N) 3,539 ? -40.0°
Sets 04:11:52 0° 8° (N) 4,486 ? -39.4°
